| time (UTC) | temp C | wind direction | speed KPH | gust KPH | rain 1hr cm | rain 24hr cm | rain mn cm | humidity % | barometer mb |
| 20260504022604 | 13 | 315 | 0.0 | 3.2 | 0.00 | 0.00 | 0.00 | 57 | 1011.9 |
| 20260504021600 | 13 | 315 | 0.0 | 3.2 | 0.00 | 0.00 | 0.00 | 58 | 1011.9 |
| 20260504020712 | 13 | 315 | 0.0 | 3.2 | 0.00 | 0.00 | 0.00 | 58 | 1011.9 |
| 20260504015540 | 13 | 0.0 | 0.0 | 0.00 | 0.00 | 0.00 | 56 | 1011.8 | |
| 20260504014604 | 13 | 315 | 0.0 | 3.2 | 0.00 | 0.00 | 0.00 | 56 | 1011.8 |
| 20260504013648 | 13 | 315 | 0.0 | 3.2 | 0.00 | 0.00 | 0.00 | 57 | 1011.9 |
| 20260504012605 | 13 | 0.0 | 0.0 | 0.00 | 0.00 | 0.00 | 57 | 1011.9 | |
| 20260504011540 | 13 | 0.0 | 0.0 | 0.00 | 0.00 | 0.00 | 58 | 1012.0 | |
| 20260504010605 | 13 | 0.0 | 0.0 | 0.00 | 0.00 | 0.00 | 58 | 1012.0 | |
| 20260504005543 | 13 | 0.0 | 0.0 | 0.00 | 0.00 | 0.00 | 56 | 1012.0 | |
| 20260504004605 | 13 | 0.0 | 0.0 | 0.00 | 0.00 | 0.00 | 55 | 1012.1 | |
| 20260504003632 | 13 | 0.0 | 0.0 | 0.00 | 0.00 | 0.00 | 54 | 1012.1 | |
| 20260504002605 | 14 | 0.0 | 0.0 | 0.00 | 0.00 | 0.00 | 53 | 1012.2 | |
| 20260504001542 | 14 | 315 | 1.6 | 3.2 | 0.00 | 0.00 | 0.00 | 53 | 1012.2 |
| 20260504000604 | 14 | 315 | 0.0 | 3.2 | 0.00 | 0.00 | 0.00 | 54 | 1012.1 |
| 20260503235654 | 14 | 0.0 | 0.0 | 0.00 | 0.00 | 0.00 | 53 | 1012.0 | |
| 20260503234611 | 14 | 0.0 | 0.0 | 0.00 | 0.00 | 0.00 | 52 | 1011.9 | |
| 20260503233541 | 15 | 315 | 0.0 | 3.2 | 0.00 | 0.00 | 0.00 | 51 | 1011.9 |
| 20260503232604 | 15 | 315 | 1.6 | 4.8 | 0.00 | 0.00 | 0.00 | 52 | 1011.9 |
| 20260503231541 | 15 | 0.0 | 0.0 | 0.00 | 0.00 | 0.00 | 51 | 1012.0 | |
| 20260503230733 | 15 | 0.0 | 0.0 | 0.00 | 0.00 | 0.00 | 51 | 1012.0 | |
| 20260503225602 | 15 | 0.0 | 0.0 | 0.00 | 0.00 | 0.00 | 51 | 1012.0 | |
| 20260503224604 | 15 | 315 | 0.0 | 3.2 | 0.00 | 0.00 | 0.00 | 50 | 1012.1 |
| 20260503223629 | 15 | 0.0 | 3.2 | 0.00 | 0.00 | 0.00 | 50 | 1012.1 | |
| 20260503222612 | 16 | 315 | 0.0 | 3.2 | 0.00 | 0.00 | 0.00 | 50 | 1012.1 |
| 20260503221605 | 16 | 315 | 3.2 | 8.0 | 0.00 | 0.00 | 0.00 | 49 | 1012.1 |
| 20260503220604 | 16 | 315 | 0.0 | 3.2 | 0.00 | 0.00 | 0.00 | 48 | 1012.2 |
| 20260503215540 | 16 | 315 | 0.0 | 6.4 | 0.00 | 0.00 | 0.00 | 48 | 1012.2 |
| 20260503214605 | 16 | 0.0 | 0.0 | 0.00 | 0.00 | 0.00 | 46 | 1012.2 | |
| 20260503213541 | 17 | 315 | 1.6 | 6.4 | 0.00 | 0.00 | 0.00 | 45 | 1012.3 |
| 20260503212605 | 17 | 315 | 3.2 | 8.0 | 0.00 | 0.00 | 0.00 | 45 | 1012.3 |
| 20260503211541 | 17 | 315 | 3.2 | 4.8 | 0.00 | 0.00 | 0.00 | 41 | 1012.4 |
| 20260503210605 | 17 | 315 | 1.6 | 3.2 | 0.00 | 0.00 | 0.00 | 41 | 1012.4 |
| 20260503210035 | 17 | 315 | 3.2 | 9.7 | 0.00 | 0.00 | 0.00 | 41 | 1012.4 |
| 20260503205141 | 18 | 315 | 6.4 | 9.7 | 0.00 | 0.00 | 0.00 | 41 | 1012.4 |
| 20260503204029 | 18 | 315 | 4.8 | 8.0 | 0.00 | 0.00 | 0.00 | 41 | 1012.5 |
| 20260503203142 | 18 | 315 | 4.8 | 11.3 | 0.00 | 0.00 | 0.00 | 40 | 1012.5 |
| 20260503202030 | 18 | 315 | 4.8 | 9.7 | 0.00 | 0.00 | 0.00 | 40 | 1012.4 |
| 20260503201053 | 18 | 315 | 4.8 | 9.7 | 0.00 | 0.00 | 0.00 | 40 | 1012.5 |
| 20260503200029 | 18 | 315 | 11.3 | 17.7 | 0.00 | 0.00 | 0.00 | 40 | 1012.5 |
| 20260503195137 | 18 | 315 | 4.8 | 11.3 | 0.00 | 0.00 | 0.00 | 40 | 1012.5 |
| 20260503194114 | 18 | 315 | 0.0 | 4.8 | 0.00 | 0.00 | 0.00 | 40 | 1012.6 |
| 20260503193053 | 18 | 315 | 6.4 | 12.9 | 0.00 | 0.00 | 0.00 | 40 | 1012.6 |
| 20260503192030 | 18 | 315 | 1.6 | 6.4 | 0.00 | 0.00 | 0.00 | 40 | 1012.6 |
| 20260503191054 | 18 | 315 | 3.2 | 8.0 | 0.00 | 0.00 | 0.00 | 40 | 1012.6 |
| 20260503190341 | 18 | 315 | 3.2 | 6.4 | 0.00 | 0.00 | 0.00 | 40 | 1012.6 |
| 20260503185056 | 19 | 315 | 6.4 | 11.3 | 0.00 | 0.00 | 0.00 | 40 | 1012.6 |
| 20260503184036 | 19 | 315 | 4.8 | 8.0 | 0.00 | 0.00 | 0.00 | 40 | 1012.7 |
| 20260503183113 | 19 | 315 | 3.2 | 8.0 | 0.00 | 0.00 | 0.00 | 40 | 1012.6 |
| 20260503182050 | 19 | 315 | 3.2 | 6.4 | 0.00 | 0.00 | 0.00 | 40 | 1012.7 |
| 20260503181053 | 19 | 315 | 1.6 | 6.4 | 0.00 | 0.00 | 0.00 | 40 | 1012.6 |
| 20260503180035 | 19 | 315 | 1.6 | 4.8 | 0.00 | 0.00 | 0.00 | 40 | 1012.6 |
| 20260503175135 | 19 | 315 | 3.2 | 8.0 | 0.00 | 0.00 | 0.00 | 40 | 1012.6 |
| 20260503174109 | 20 | 315 | 0.0 | 3.2 | 0.00 | 0.00 | 0.00 | 39 | 1012.5 |
| 20260503173053 | 20 | 315 | 1.6 | 4.8 | 0.00 | 0.00 | 0.00 | 38 | 1012.4 |
| 20260503172139 | 20 | 315 | 1.6 | 4.8 | 0.00 | 0.00 | 0.00 | 37 | 1012.4 |
| 20260503171100 | 20 | 315 | 3.2 | 8.0 | 0.00 | 0.00 | 0.00 | 36 | 1012.2 |
| 20260503160119 | 23 | 315 | 6.4 | 11.3 | 0.00 | 0.00 | 0.00 | 28 | 1012.0 |
| 20260503131053 | 23 | 315 | 11.3 | 16.1 | 0.00 | 0.00 | 0.00 | 30 | 1013.0 |
| 20260503110639 | 20 | 0.0 | 0.0 | 0.00 | 0.00 | 0.00 | 40 | 1014.2 | |
| 20260503081525 | 17 | 0.0 | 0.0 | 0.00 | 0.00 | 0.00 | 48 | 1015.5 | |
| 20260503080549 | 17 | 0.0 | 0.0 | 0.00 | 0.00 | 0.00 | 49 | 1015.5 | |
| 20260503072550 | 16 | 0.0 | 0.0 | 0.00 | 0.00 | 0.00 | 51 | 1015.6 | |
| 20260503071702 | 15 | 0.0 | 0.0 | 0.00 | 0.00 | 0.00 | 51 | 1015.6 | |
| 20260503070637 | 15 | 0.0 | 0.0 | 0.00 | 0.00 | 0.00 | 51 | 1015.6 | |
| 20260503054549 | 13 | 0.0 | 0.0 | 0.00 | 0.00 | 0.00 | 54 | 1015.9 | |
| 20260503053525 | 13 | 0.0 | 0.0 | 0.00 | 0.00 | 0.00 | 55 | 1015.9 | |
| 20260503052609 | 13 | 0.0 | 0.0 | 0.00 | 0.00 | 0.00 | 55 | 1015.9 | |
| 20260503051525 | 12 | 0.0 | 0.0 | 0.00 | 0.00 | 0.00 | 55 | 1016.0 | |
| 20260503050549 | 12 | 0.0 | 0.0 | 0.00 | 0.00 | 0.00 | 55 | 1016.1 | |
| 20260503045545 | 12 | 0.0 | 0.0 | 0.00 | 0.00 | 0.00 | 56 | 1016.2 | |
| 20260503044612 | 12 | 0.0 | 0.0 | 0.00 | 0.00 | 0.00 | 57 | 1016.3 | |
| 20260503043525 | 12 | 0.0 | 0.0 | 0.00 | 0.00 | 0.00 | 61 | 1016.3 | |
| 20260503042550 | 12 | 0.0 | 0.0 | 0.00 | 0.00 | 0.00 | 61 | 1016.3 | |
| 20260503041527 | 12 | 0.0 | 0.0 | 0.00 | 0.00 | 0.00 | 61 | 1016.3 | |
| 20260503040550 | 11 | 0.0 | 0.0 | 0.00 | 0.00 | 0.00 | 62 | 1016.4 | |
| 20260503035525 | 11 | 0.0 | 0.0 | 0.00 | 0.00 | 0.00 | 62 | 1016.5 | |
| 20260503034549 | 11 | 0.0 | 0.0 | 0.00 | 0.00 | 0.00 | 63 | 1016.6 | |
| 20260503033529 | 11 | 0.0 | 0.0 | 0.00 | 0.00 | 0.00 | 63 | 1016.5 | |
| 20260503032550 | 11 | 0.0 | 0.0 | 0.00 | 0.00 | 0.00 | 63 | 1016.4 | |
| 20260503031530 | 11 | 0.0 | 0.0 | 0.00 | 0.00 | 0.00 | 63 | 1016.5 | |
| 20260503030556 | 11 | 0.0 | 0.0 | 0.00 | 0.00 | 0.00 | 63 | 1016.5 | |
| 20260503025546 | 11 | 0.0 | 0.0 | 0.00 | 0.00 | 0.00 | 63 | 1016.5 | |
| 20260503024556 | 11 | 0.0 | 0.0 | 0.00 | 0.00 | 0.00 | 63 | 1016.5 | |
| 20260503023545 | 11 | 0.0 | 0.0 | 0.00 | 0.00 | 0.00 | 63 | 1016.5 |